Weather History for K9V9 - October, 2011

Change the Weather History Date:

Saturday, October 1, 2011

  Actual Average (KICR) Record (KICR)
Temperature  
Mean Temperature 65 °F 57 °F  
Max Temperature 84 °F 70 °F - ()
Min Temperature 48 °F 44 °F - ()
Degree Days  
Heating Degree Days 0 9  
Month to date heating degree days 9  
Since 1 July heating degree days 151  
Cooling Degree Days 0 1  
Month to date cooling degree days 1  
Year to date cooling degree days 907  
Growing Degree Days 15 (Base 50)    
Moisture  
Dew Point 37 °F    
Average Humidity 41    
Maximum Humidity 66    
Minimum Humidity 18    
Precipitation  
Precipitation 0.00 in 0.06 in - ()
Month to date precipitation 0.06  
Year to date precipitation 19.05  
Sea Level Pressure  
Sea Level Pressure 30.07 in    
Wind  
Wind Speed 14 mph (South)    
Max Wind Speed 23 mph    
Max Gust Speed 30 mph    
T = Trace of Precipitation, MM = Missing Value Source: NWS Daily Summary

Daily Weather History Graph

Daily Weather History Graph

Search for Another Location

Airport or City:

Trip Planner

Search our weather history database for the weather conditions in past years. The results will help you decide how hot, cold, wet, or windy it might be!

Date:

Astronomy

Oct. 01, 2011 Rise Set
Actual Time 7:34 AM CDT 7:18 PM CDT
Civil Twilight 7:05 AM CDT 7:47 PM CDT
Nautical Twilight 6:32 AM CDT 8:20 PM CDT
Astronomical Twilight 5:58 AM CDT 8:54 PM CDT
Moon 12:53 PM CDT 10:06 PM CDT
Length of Visible Light 12h 41m
Length of Day
11h 44m
Waxing Crescent, 24% of the Moon is Illuminated
Oct 1
Waxing Crescent
Oct 3
First Quarter
Oct 11
Full
Oct 19
Last Quarter
Oct 26
New

Hourly Weather History & Observations

Time (CDT) Temp. Dew Point Humidity Pressure Visibility Wind Dir Wind Speed Gust Speed Precip Events Conditions
12:52 AM 50.0 °F 37.0 °F 61% 30.12 in - South 9.2 mph - N/A   Unknown
1:52 AM 51.1 °F 37.0 °F 59% 30.12 in - SSE 11.5 mph - N/A   Unknown
2:52 AM 50.0 °F 37.0 °F 61% 30.13 in - SSE 12.7 mph - N/A   Unknown
3:52 AM 48.9 °F 37.0 °F 64% 30.12 in - SSE 13.8 mph - N/A   Unknown
4:52 AM 48.9 °F 37.9 °F 66% 30.12 in - SSE 13.8 mph - N/A   Unknown
5:52 AM 48.9 °F 37.9 °F 66% 30.11 in - SSE 15.0 mph - N/A   Unknown
6:52 AM 50.0 °F 37.9 °F 63% 30.12 in - SSE 12.7 mph - N/A   Unknown
7:52 AM 50.0 °F 37.9 °F 63% 30.12 in - SSE 15.0 mph - N/A   Unknown
8:52 AM 55.0 °F 37.9 °F 53% 30.12 in - South 12.7 mph - N/A   Unknown
9:52 AM 64.0 °F 35.1 °F 34% 30.11 in - South 17.3 mph 25.3 mph N/A   Unknown
10:52 AM 68.0 °F 35.1 °F 30% 30.10 in - SSW 16.1 mph 24.2 mph N/A   Unknown
11:52 AM 72.0 °F 35.1 °F 26% 30.09 in - SSW 20.7 mph 28.8 mph N/A   Unknown
12:52 PM 77.0 °F 35.1 °F 22% 30.07 in - SSW 20.7 mph 27.6 mph N/A   Unknown
1:52 PM 79.0 °F 34.0 °F 20% 30.04 in - South 23.0 mph 27.6 mph N/A   Unknown
2:52 PM 82.0 °F 35.1 °F 18% 30.02 in - SSW 20.7 mph 29.9 mph N/A   Unknown
3:52 PM 82.9 °F 35.1 °F 18% 30.01 in - SSW 21.9 mph 26.5 mph N/A   Unknown
4:52 PM 82.0 °F 35.1 °F 18% 30.00 in - South 21.9 mph 27.6 mph N/A   Unknown
5:52 PM 81.0 °F 36.0 °F 20% 30.00 in - SSW 20.7 mph - N/A   Unknown
6:52 PM 75.9 °F 37.0 °F 24% 30.01 in - South 12.7 mph - N/A   Unknown
7:52 PM 68.0 °F 39.9 °F 36% 30.02 in - South 11.5 mph - N/A   Unknown
8:52 PM 64.0 °F 39.9 °F 41% 30.02 in - South 11.5 mph - N/A   Unknown
9:52 PM 63.0 °F 39.9 °F 43% 30.02 in - South 10.4 mph - N/A   Unknown
10:52 PM 61.0 °F 39.9 °F 46% 30.02 in - South 12.7 mph - N/A   Unknown
11:52 PM 66.0 °F 39.0 °F 37% 30.01 in - South 12.7 mph - N/A   Unknown